PWSweather.com
Personal Weather Stations
Station Observations
REUBENS
Camas Prairie, Reubens, ID

Camas PrairieReubens, ID

Lat: 46.35417, Lon: -116.53167

Elevation: 3480

Station Type: Davis VantagePro 2

http://www.theobrienranch.com/wx/wx.htm

Latest ConditionsUpdated 11:00:00 AM PDT Thursday, Oct 30, 2014
Currently Today's Max Today's Min Today's Average
Temperature 49.0°F9.4°C 49.0°F9.4°C 42.6°F5.9°C 44.5°F6.9°C
Dew Point 42.8°F6.0°C 42.8°F6.0°C 39.6°F4.2°C 40.7°F4.8°C
Winds 6.5 mph E10.5 kmh E 8.6 mph ESE13.8 kmh ESE - 5.8 mph 9.3 kmh
Wind Gusts 9.0 mph14.5 kmh 11.0 mph17.7 kmh - -
Humidity 79% 90% 79% 86%
Pressure 30.09 in1019.0 mb 30.16 in1021.3 mb 30.09 in1019.0 mb -
Hour Temp Dew Point Humidity Winds Wind Gusts Pressure Precip Precip Rate Daily Precip Total
11:00 AM 49.0°F9.4°C 42.8°F6.0°C 79% 6.5 mph E10.5 kmh E 9.0 mph14.5 kmh 30.09 in1019.0 mb 0.00 in0.0 mm 0.00 in/hr0.0 mm/hr 0.00 in0.0 mm
10:30 AM 48.1°F8.9°C 42.5°F5.8°C 81% 6.1 mph E9.8 kmh E 7.0 mph11.3 kmh 30.10 in1019.3 mb 0.00 in0.0 mm 0.00 in/hr0.0 mm/hr 0.00 in0.0 mm
10:00 AM 47.9°F8.8°C 42.6°F5.9°C 82% 8.6 mph ESE13.8 kmh ESE 11.0 mph17.7 kmh 30.10 in1019.3 mb 0.00 in0.0 mm 0.00 in/hr0.0 mm/hr 0.00 in0.0 mm
09:30 AM 46.4°F8.0°C 41.8°F5.4°C 84% 6.0 mph E9.7 kmh E 8.0 mph12.9 kmh 30.12 in1020.0 mb 0.00 in0.0 mm 0.00 in/hr0.0 mm/hr 0.00 in0.0 mm
09:00 AM 45.5°F7.5°C 40.9°F4.9°C 84% 5.4 mph ESE8.7 kmh ESE 5.0 mph8.0 kmh 30.12 in1020.0 mb 0.00 in0.0 mm 0.00 in/hr0.0 mm/hr 0.00 in0.0 mm
08:30 AM 44.7°F7.1°C 40.5°F4.7°C 85% 6.4 mph ESE10.3 kmh ESE 9.0 mph14.5 kmh 30.13 in1020.3 mb 0.00 in0.0 mm 0.00 in/hr0.0 mm/hr 0.00 in0.0 mm
08:00 AM 44.1°F6.7°C 39.9°F4.4°C 85% 4.6 mph E7.4 kmh E 6.0 mph9.7 kmh 30.13 in1020.3 mb 0.00 in0.0 mm 0.00 in/hr0.0 mm/hr 0.00 in0.0 mm
07:30 AM 45.0°F7.2°C 39.8°F4.3°C 82% 4.8 mph SE7.7 kmh SE 5.0 mph8.0 kmh 30.12 in1020.0 mb 0.00 in0.0 mm 0.00 in/hr0.0 mm/hr 0.00 in0.0 mm
07:00 AM 44.5°F6.9°C 40.0°F4.4°C 84% 5.3 mph ESE8.5 kmh ESE 6.0 mph9.7 kmh 30.12 in1020.0 mb 0.00 in0.0 mm 0.00 in/hr0.0 mm/hr 0.00 in0.0 mm
06:30 AM 43.6°F6.4°C 40.0°F4.4°C 87% 5.3 mph ESE8.5 kmh ESE 6.0 mph9.7 kmh 30.11 in1019.6 mb 0.00 in0.0 mm 0.00 in/hr0.0 mm/hr 0.00 in0.0 mm
06:00 AM 42.7°F5.9°C 39.7°F4.3°C 89% 5.5 mph E8.9 kmh E 6.0 mph9.7 kmh 30.13 in1020.3 mb 0.00 in0.0 mm 0.00 in/hr0.0 mm/hr 0.00 in0.0 mm
05:30 AM 42.6°F5.9°C 39.6°F4.2°C 89% 5.2 mph ESE8.4 kmh ESE 6.0 mph9.7 kmh 30.13 in1020.3 mb 0.00 in0.0 mm 0.00 in/hr0.0 mm/hr 0.00 in0.0 mm
05:00 AM 43.0°F6.1°C 40.0°F4.4°C 89% 5.1 mph ESE8.2 kmh ESE 6.0 mph9.7 kmh 30.13 in1020.3 mb 0.00 in0.0 mm 0.00 in/hr0.0 mm/hr 0.00 in0.0 mm
04:30 AM 43.2°F6.2°C 40.2°F4.6°C 89% 4.3 mph ESE6.9 kmh ESE 5.0 mph8.0 kmh 30.11 in1019.6 mb 0.00 in0.0 mm 0.00 in/hr0.0 mm/hr 0.00 in0.0 mm
04:00 AM 43.1°F6.2°C 39.8°F4.3°C 88% 7.7 mph ESE12.4 kmh ESE 9.0 mph14.5 kmh 30.12 in1020.0 mb 0.00 in0.0 mm 0.00 in/hr0.0 mm/hr 0.00 in0.0 mm
03:30 AM 43.4°F6.3°C 40.1°F4.5°C 88% 8.4 mph SE13.5 kmh SE 10.0 mph16.1 kmh 30.13 in1020.3 mb 0.00 in0.0 mm 0.00 in/hr0.0 mm/hr 0.00 in0.0 mm
03:00 AM 43.6°F6.4°C 40.6°F4.8°C 89% 6.3 mph ESE10.1 kmh ESE 7.0 mph11.3 kmh 30.13 in1020.3 mb 0.00 in0.0 mm 0.00 in/hr0.0 mm/hr 0.00 in0.0 mm
02:30 AM 43.8°F6.6°C 40.7°F4.8°C 89% 6.5 mph ESE10.5 kmh ESE 8.0 mph12.9 kmh 30.14 in1020.7 mb 0.00 in0.0 mm 0.00 in/hr0.0 mm/hr 0.00 in0.0 mm
02:00 AM 43.3°F6.3°C 40.6°F4.8°C 90% 6.6 mph ESE10.6 kmh ESE 9.0 mph14.5 kmh 30.14 in1020.7 mb 0.00 in0.0 mm 0.00 in/hr0.0 mm/hr 0.00 in0.0 mm
01:30 AM 43.0°F6.1°C 40.2°F4.6°C 90% 5.5 mph ESE8.9 kmh ESE 6.0 mph9.7 kmh 30.15 in1021.0 mb 0.00 in0.0 mm 0.00 in/hr0.0 mm/hr 0.00 in0.0 mm
01:00 AM 43.6°F6.4°C 40.6°F4.8°C 89% 4.7 mph ESE7.6 kmh ESE 6.0 mph9.7 kmh 30.15 in1021.0 mb 0.00 in0.0 mm 0.00 in/hr0.0 mm/hr 0.00 in0.0 mm
12:30 AM 44.2°F6.8°C 40.9°F4.9°C 88% 4.7 mph ESE7.6 kmh ESE 6.0 mph9.7 kmh 30.16 in1021.3 mb 0.00 in0.0 mm 0.00 in/hr0.0 mm/hr 0.00 in0.0 mm
12:00 AM 45.6°F7.6°C 41.4°F5.2°C 85% 3.9 mph SE6.3 kmh SE 5.0 mph8.0 kmh 30.15 in1021.0 mb 0.00 in0.0 mm 0.00 in/hr0.0 mm/hr 0.00 in0.0 mm